{"data":{"norad_id":61590,"epoch":"2026-05-25T01:22:05.612160Z","epoch_age_seconds":70296,"freshness":"FRESH","line1":"1 61590U 24187S   26145.05700940 -.00000627  00000+0 -74233-5 0  9996","line2":"2 61590  53.1619  69.7552 0001272  79.1761 280.9385 15.34388282 90788","mean_motion":15.34388282,"eccentricity":0.0001272,"inclination_deg":53.1619,"raan_deg":69.7552,"arg_perigee_deg":79.1761,"mean_anomaly_deg":280.9385,"bstar":-7.4233e-6,"rev_number":9078,"period_min":93.848474789121,"perigee_km":461.86790948546,"apogee_km":463.60822810296,"semimajor_km":6840.8750687942,"source":"CELESTRAK","updated_at":"2026-05-25T13:38:19.405197Z"}}